SL-8 R/B, 9848

Orbit data source: Space-Track

SL-8 R/B, 9848 is space debris in LEO originally from a launch on Mon, 21 Feb 1977 UTC launched from the Plesetsk Missile And Space Complex (PKMTR). Debris objects in space refer to the collection of defunct objects orbiting the Earth. Examples of debris include non-operational satellites, rocket bodies, and fragments generated from explosions, collisions, or faulty payload assembly.

Loading next visibility...
Identifier
9848, 1977-013B
Orbit
LEO
Country
Flag of CISCIS
Related business
Manufacturer
Omsk Av. Zav.
Mission
Spacecraft
Bus & Motor
S3, Unknown motor
Mass
1,434 kg wet, 1,434 kg dry
Launch date (UTC)
1977-02-21 (49 years ago)
Launch vehicle
Unknown
Launch site
Plesetsk Missile And Space Complex (PKMTR)
Object type
Payload
Rocket body
Debris
Shape & HBR
Unknown
Radar Cross Section
Large (>1 m²)

Expand to show TLE details & history
Last TLE update: 11 hours ago

TLE from 11 hours ago
0 SL-8 R/B
1 09848U 77013B   25308.35720515  .00000112  00000-0  10063-3 0  9990
2 09848  82.9515 238.1541 0016101 338.1969 139.3632 13.75737915444033
Epoch: 2025-11-04T08:34Z
TLE epoch observation values (Epoch: 2025-11-04T08:34:22.524Z)
Latitude
61.59662°
Longitude
-127.43256°
Altitude
998.583 km
Speed
7.354 km/s
True Right ascension
03h 00m 01s
True Declination
61° 27' 26"
Sunlit
Object was in full shadow at epoch
Visualization orbit readout
Latitude
Unknown
Longitude
Unknown
Altitude
Unknown
Speed
Unknown
Apparent Right ascension
Unknown
Apparent Declination
Unknown
Sunlit
N/A
Visualization observer readout
Local Sidereal Time
16:00:01
Azimuth
Unknown
Elevation
Unknown
Doppler factor
Unknown
Orbital elements
Apogee altitude
988.031 km
Perigee altitude
964.349 km
Semi-major axis
7,354.327 km
Eccentricity
0.00161
Inclination
82.9515°
RAAN
238.1541°
Arg. of periapsis
338.1969°
True anomaly
139.48318°
Mean anomaly
139.3632°
Eccentric anomaly
139.42321°
Mean motion
3.44135 °/min
Orbital period
104.61 mins
BSTAR
0.00010063
Loading maneuver chart data...
Computing Atmospheric mass density...
Loading historical data...
Loading historical data...
Loading historical data...
Loading historical data...
Loading historical data...
Loading historical data...
Loading historical data...
Other satellites on launch #13 in the year 1977 (1977-02-21 UTC)

Documentation

Showing up to 5 results
|